FW1692 Weather Reports


time (UTC)temp
C
wind
direction
speed
KPH
gust
KPH
rain 1hr
cm
rain 24hr
cm
rain mn
cm
humidity
%
barometer
mb
20260507203245 12 257 0.0 1.6 0.00 0.00 0.00 76 1017.4
20260507202745 12 257 0.0 3.2 0.00 0.00 0.00 76 1017.3
20260507202245 12 257 1.6 3.2 0.00 0.00 0.00 75 1017.3
20260507202008 12 257 1.6 3.2 0.00 0.00 0.00 75 1017.2
20260507201245 12 269 0.0 3.2 0.00 0.00 0.00 76 1017.3
20260507200745 12 269 0.0 3.2 0.00 0.00 0.00 76 1017.2
20260507200244 12 269 0.0 3.2 0.00 0.00 0.00 75 1017.1
20260507195745 12 271 0.0 3.2 0.00 0.00 0.00 74 1017.2
20260507195246 12 271 1.6 3.2 0.00 0.00 0.00 75 1017.0
20260507194745 12 275 0.0 0.0 0.00 0.00 0.00 74 1017.0
20260507194241 12 275 0.0 0.0 0.00 0.00 0.00 74 1017.0
20260507193738 12 275 0.0 1.6 0.00 0.00 0.00 73 1017.1
20260507193238 13 275 0.0 3.2 0.00 0.00 0.00 72 1017.0
20260507192732 13 275 0.0 6.4 0.00 0.00 0.00 72 1017.0
20260507192231 13 275 1.6 6.4 0.00 0.00 0.00 71 1017.0
20260507191952 13 235 3.2 6.4 0.00 0.00 0.00 70 1017.1
20260507191231 13 259 3.2 8.0 0.00 0.00 0.00 69 1017.0
20260507191004 13 230 3.2 8.0 0.00 0.00 0.00 68 1016.9
20260507190452 13 171 1.6 4.8 0.00 0.00 0.00 67 1016.9
20260507185731 13 216 1.6 4.8 0.00 0.00 0.00 66 1016.9
20260507185231 13 189 1.6 4.8 0.00 0.00 0.00 65 1016.9
20260507184731 13 189 1.6 6.4 0.00 0.00 0.00 64 1016.8
20260507184231 13 189 3.2 6.4 0.00 0.00 0.00 63 1016.8
20260507183951 13 161 1.6 4.8 0.00 0.00 0.00 63 1016.7
20260507183230 13 161 1.6 3.2 0.00 0.00 0.00 62 1016.7
20260507182732 13 161 1.6 4.8 0.00 0.00 0.00 62 1016.6
20260507182232 14 159 1.6 4.8 0.00 0.00 0.00 62 1016.6
20260507181732 14 147 1.6 4.8 0.00 0.00 0.00 61 1016.5
20260507181232 14 155 1.6 4.8 0.00 0.00 0.00 61 1016.4
20260507180732 14 155 1.6 6.4 0.00 0.00 0.00 60 1016.4
20260507180449 14 155 3.2 8.0 0.00 0.00 0.00 61 1016.4
20260507175731 14 154 0.0 8.0 0.00 0.00 0.00 60 1016.4
20260507175231 14 212 1.6 6.4 0.00 0.00 0.00 60 1016.4
20260507174731 14 144 1.6 8.0 0.00 0.00 0.00 59 1016.5
20260507174215 14 217 3.2 8.0 0.00 0.00 0.00 58 1016.5
20260507173711 14 255 1.6 9.7 0.00 0.00 0.00 59 1016.5
20260507173211 14 185 3.2 9.7 0.00 0.00 0.00 58 1016.4
20260507172710 14 258 3.2 9.7 0.00 0.00 0.00 59 1016.5
20260507172430 15 207 3.2 9.7 0.00 0.00 0.00 57 1016.4
20260507171925 15 140 3.2 16.1 0.00 0.00 0.00 57 1016.5
20260507171205 15 293 1.6 16.1 0.00 0.00 0.00 57 1016.4
20260507170706 15 173 3.2 9.7 0.00 0.00 0.00 57 1016.4
20260507170205 15 206 1.6 11.3 0.00 0.00 0.00 57 1016.5
20260507165703 15 176 4.8 11.3 0.00 0.00 0.00 56 1016.4
20260507165204 15 204 3.2 11.3 0.00 0.00 0.00 56 1016.4
20260507164703 15 230 4.8 9.7 0.00 0.00 0.00 57 1016.5
20260507164202 15 161 3.2 8.0 0.00 0.00 0.00 57 1016.4
20260507163703 15 131 1.6 9.7 0.00 0.00 0.00 56 1016.4
20260507163203 15 207 3.2 16.1 0.00 0.00 0.00 55 1016.4
20260507162703 15 149 6.4 16.1 0.00 0.00 0.00 54 1016.5
20260507162203 15 121 6.4 19.3 0.00 0.00 0.00 53 1016.5
20260507161702 15 138 3.2 19.3 0.00 0.00 0.00 53 1016.5
20260507161202 15 103 4.8 11.3 0.00 0.00 0.00 55 1016.5
20260507160703 15 59 3.2 9.7 0.00 0.00 0.00 56 1016.5
20260507160203 15 227 3.2 8.0 0.00 0.00 0.00 57 1016.5
20260507155703 15 189 3.2 8.0 0.00 0.00 0.00 56 1016.6
20260507155203 15 183 3.2 14.5 0.00 0.00 0.00 57 1016.5
20260507154704 15 128 3.2 14.5 0.00 0.00 0.00 57 1016.5
20260507154203 15 117 1.6 9.7 0.00 0.00 0.00 57 1016.5
20260507153704 15 183 3.2 11.3 0.00 0.00 0.00 57 1016.7
20260507153203 15 128 4.8 11.3 0.00 0.00 0.00 57 1016.7
20260507152704 15 151 1.6 9.7 0.00 0.00 0.00 56 1016.7
20260507152203 15 125 1.6 6.4 0.00 0.00 0.00 56 1016.7
20260507151705 15 213 3.2 8.0 0.00 0.00 0.00 55 1016.8
20260507151203 15 224 3.2 8.0 0.00 0.00 0.00 55 1016.8
20260507150704 16 127 1.6 14.5 0.00 0.00 0.00 56 1016.7
20260507150205 16 195 6.4 14.5 0.00 0.00 0.00 55 1016.8
20260507145703 16 147 1.6 16.1 0.00 0.00 0.00 57 1016.9
20260507145204 16 199 3.2 16.1 0.00 0.00 0.00 55 1016.7
20260507144703 16 104 4.8 11.3 0.00 0.00 0.00 57 1016.8
20260507144205 16 138 1.6 9.7 0.00 0.00 0.00 57 1016.8
20260507143704 16 99 3.2 19.3 0.00 0.00 0.00 54 1016.9
20260507143427 16 220 3.2 19.3 0.00 0.00 0.00 55 1017.0
20260507142703 16 180 4.8 16.1 0.00 0.00 0.00 57 1017.0
20260507142203 16 159 3.2 9.7 0.00 0.00 0.00 57 1017.1
20260507141925 16 141 3.2 8.0 0.00 0.00 0.00 57 1017.1
20260507141203 16 89 4.8 8.0 0.00 0.00 0.00 58 1017.2
20260507140926 16 148 3.2 14.5 0.00 0.00 0.00 57 1017.2
20260507140204 16 147 3.2 14.5 0.00 0.00 0.00 55 1017.3
20260507135704 16 235 6.4 14.5 0.00 0.00 0.00 57 1017.3
20260507135203 15 217 6.4 11.3 0.00 0.00 0.00 59 1017.4
20260507134703 15 164 3.2 9.7 0.00 0.00 0.00 58 1017.4
20260507134204 16 148 4.8 11.3 0.00 0.00 0.00 57 1017.5
20260507133703 16 219 1.6 11.3 0.00 0.00 0.00 59 1017.5
20260507133204 15 123 4.8 9.7 0.00 0.00 0.00 59 1017.5
20260507132705 15 189 3.2 11.3 0.00 0.00 0.00 60 1017.5
20260507132204 15 131 3.2 11.3 0.00 0.00 0.00 61 1017.5
20260507131704 15 183 3.2 14.5 0.00 0.00 0.00 59 1017.6
20260507131203 15 75 6.4 14.5 0.00 0.00 0.00 59 1017.8
20260507130703 15 206 4.8 11.3 0.00 0.00 0.00 61 1017.7
20260507130203 15 73 4.8 9.7 0.00 0.00 0.00 61 1017.8
20260507125704 15 94 3.2 9.7 0.00 0.00 0.00 61 1017.7
20260507125204 15 207 4.8 9.7 0.00 0.00 0.00 62 1017.6
20260507124932 15 165 3.2 9.7 0.00 0.00 0.00 63 1017.7
20260507124204 14 97 4.8 9.7 0.00 0.00 0.00 63 1017.8
20260507123704 14 145 4.8 11.3 0.00 0.00 0.00 63 1017.8
20260507123203 14 182 4.8 16.1 0.00 0.00 0.00 63 1017.8
20260507122705 14 117 6.4 16.1 0.00 0.00 0.00 63 1017.9
20260507122204 14 183 6.4 16.1 0.00 0.00 0.00 63 1017.8
20260507121703 14 140 3.2 9.7 0.00 0.00 0.00 66 1017.9
20260507121203 13 219 3.2 9.7 0.00 0.00 0.00 67 1017.8
20260507120936 13 197 3.2 9.7 0.00 0.00 0.00 67 1017.9
20260507120203 13 131 3.2 8.0 0.00 0.00 0.00 67 1018.0
20260507115927 13 97 3.2 14.5 0.00 0.00 0.00 69 1018.0
20260507115203 13 83 3.2 14.5 0.00 0.00 0.00 69 1018.0
20260507114704 12 78 3.2 9.7 0.00 0.00 0.00 70 1018.0
20260507114204 12 224 3.2 11.3 0.00 0.00 0.00 71 1018.1
20260507113704 12 158 3.2 16.1 0.00 0.00 0.00 73 1018.1
20260507113203 12 80 3.2 16.1 0.00 0.00 0.00 73 1018.2
20260507112702 12 144 3.2 9.7 0.00 0.00 0.00 73 1018.2
20260507112202 11 124 3.2 11.3 0.00 0.00 0.00 73 1018.3
20260507111703 11 235 3.2 11.3 0.00 0.00 0.00 74 1018.3
20260507111423 11 109 4.8 8.0 0.00 0.00 0.00 75 1018.2
20260507110702 11 102 3.2 8.0 0.00 0.00 0.00 76 1018.2
20260507110203 11 90 1.6 8.0 0.00 0.00 0.00 76 1018.2
20260507105703 11 207 1.6 8.0 0.00 0.00 0.00 76 1018.3
20260507105204 11 93 3.2 9.7 0.00 0.00 0.00 78 1018.5
20260507104925 11 182 0.0 9.7 0.00 0.00 0.00 78 1018.5
20260507104204 10 144 1.6 6.4 0.00 0.00 0.00 79 1018.5
20260507103703 10 202 4.8 6.4 0.00 0.00 0.00 80 1018.5
20260507103204 10 103 1.6 9.7 0.00 0.00 0.00 80 1018.6
20260507102703 10 99 1.6 9.7 0.00 0.00 0.00 81 1018.5
20260507102435 10 118 3.2 8.0 0.00 0.00 0.00 82 1018.5
20260507101700 10 226 1.6 6.4 0.00 0.00 0.00 81 1018.5
20260507101651 9 135 3.2 6.4 0.00 0.00 0.00 82 1018.5
20260507100659 9 78 3.2 6.4 0.00 0.00 0.00 82 1018.4
20260507100200 9 113 3.2 4.8 0.00 0.00 0.00 82 1018.4
20260507095657 9 134 1.6 8.0 0.00 0.00 0.00 82 1018.5
20260507095157 9 134 3.2 8.0 0.00 0.00 0.00 82 1018.5
20260507094917 9 103 3.2 8.0 0.00 0.00 0.00 82 1018.5
20260507094155 9 120 3.2 6.4 0.00 0.00 0.00 83 1018.5
20260507093654 8 100 3.2 6.4 0.00 0.00 0.00 83 1018.5
20260507093415 8 82 3.2 6.4 0.00 0.00 0.00 83 1018.6
20260507092919 9 172 3.2 9.7 0.00 0.00 0.00 83 1018.6
20260507092152 9 83 4.8 9.7 0.00 0.00 0.00 83 1018.6
20260507091652 9 117 1.6 6.4 0.00 0.00 0.00 84 1018.5
20260507091149 8 144 1.6 11.3 0.00 0.00 0.00 84 1018.5
20260507090646 8 120 3.2 11.3 0.00 0.00 0.00 84 1018.4
20260507090146 8 182 0.0 8.0 0.00 0.00 0.00 84 1018.4
20260507085646 8 133 1.6 6.4 0.00 0.00 0.00 85 1018.4
20260507085145 8 86 0.0 6.4 0.00 0.00 0.00 86 1018.4
20260507084645 8 114 0.0 9.7 0.00 0.00 0.00 86 1018.4
20260507084145 8 113 4.8 9.7 0.00 0.00 0.00 86 1018.4
20260507083646 8 113 1.6 8.0 0.00 0.00 0.00 86 1018.5
20260507083145 8 121 1.6 4.8 0.00 0.00 0.00 86 1018.4
20260507082645 8 97 1.6 9.7 0.00 0.00 0.00 86 1018.4
20260507082144 8 93 3.2 9.7 0.00 0.00 0.00 86 1018.4
20260507081644 8 89 3.2 8.0 0.00 0.00 0.00 86 1018.5
20260507081143 8 87 3.2 8.0 0.00 0.00 0.00 86 1018.5
20260507080644 8 107 3.2 8.0 0.00 0.00 0.00 86 1018.4
20260507080145 8 114 4.8 8.0 0.00 0.00 0.00 86 1018.4
20260507075645 8 124 1.6 6.4 0.00 0.00 0.00 87 1018.5
20260507075141 8 99 3.2 11.3 0.00 0.00 0.00 87 1018.5
20260507074640 7 89 3.2 11.3 0.00 0.00 0.00 87 1018.4
20260507074141 7 125 1.6 9.7 0.00 0.00 0.00 87 1018.5
20260507073641 7 127 1.6 9.7 0.00 0.00 0.00 87 1018.4
20260507073141 7 120 4.8 9.7 0.00 0.00 0.00 87 1018.4
20260507072638 7 131 1.6 9.7 0.00 0.00 0.00 87 1018.3
20260507072402 7 38 1.6 11.3 0.00 0.00 0.00 88 1018.3
20260507071635 7 85 3.2 11.3 0.00 0.00 0.00 88 1018.3
20260507071135 7 92 3.2 6.4 0.00 0.00 0.00 88 1018.3
20260507070635 7 114 0.0 8.0 0.00 0.00 0.00 88 1018.3
20260507070357 7 111 1.6 8.0 0.00 0.00 0.00 88 1018.3
20260507065850 7 111 0.0 4.8 0.00 0.00 0.00 89 1018.2
20260507065133 7 110 3.2 8.0 0.00 0.00 0.00 89 1018.2
20260507064630 7 116 3.2 8.0 0.00 0.00 0.00 89 1018.2
20260507064132 7 107 1.6 4.8 0.00 0.00 0.00 89 1018.2
20260507063632 7 107 1.6 4.8 0.00 0.00 0.00 89 1018.2
20260507063132 7 107 3.2 6.4 0.00 0.00 0.00 89 1018.2
20260507062631 7 117 1.6 6.4 0.00 0.00 0.00 90 1018.2
20260507062132 6 121 0.0 4.8 0.00 0.00 0.00 90 1018.2
20260507061631 6 121 1.6 4.8 0.00 0.00 0.00 90 1018.1
20260507061133 6 87 1.6 6.4 0.00 0.00 0.00 90 1018.2
20260507060632 6 131 1.6 6.4 0.00 0.00 0.00 90 1018.1
20260507060133 6 134 0.0 4.8 0.00 0.00 0.00 90 1018.2
20260507055631 6 110 0.0 3.2 0.00 0.00 0.00 90 1018.1
20260507055132 6 114 0.0 3.2 0.00 0.00 0.00 90 1018.1
20260507054628 6 114 1.6 3.2 0.00 0.00 0.00 90 1018.0
20260507054128 6 113 0.0 3.2 0.00 0.00 0.00 91 1018.1
20260507053628 6 113 0.0 3.2 0.00 0.00 0.00 90 1018.0
20260507053126 6 110 1.6 3.2 0.00 0.00 0.00 91 1018.0
20260507052627 6 99 0.0 3.2 0.00 0.00 0.00 91 1018.1
20260507052127 6 99 1.6 3.2 0.00 0.00 0.00 91 1018.0
20260507051626 6 97 0.0 3.2 0.00 0.00 0.00 91 1017.9
20260507051124 6 97 0.0 3.2 0.00 0.00 0.00 91 1018.0
20260507050847 5 97 0.0 3.2 0.00 0.00 0.00 90 1018.0
20260507050349 5 97 0.0 1.6 0.00 0.00 0.00 90 1017.9
20260507045623 5 99 0.0 3.2 0.00 0.00 0.00 90 1017.9
20260507045125 5 99 0.0 3.2 0.00 0.00 0.00 90 1017.9
20260507044622 5 99 0.0 0.0 0.00 0.00 0.00 90 1017.9
20260507044124 5 99 0.0 0.0 0.00 0.00 0.00 90 1018.0
20260507043624 5 99 0.0 0.0 0.00 0.00 0.00 90 1017.9
20260507043124 5 99 0.0 0.0 0.00 0.00 0.00 90 1017.9
20260507042622 5 99 0.0 0.0 0.00 0.00 0.00 90 1018.0
20260507042124 5 99 0.0 0.0 0.00 0.00 0.00 89 1018.0
20260507041622 5 99 0.0 0.0 0.00 0.00 0.00 89 1018.0
20260507041609 5 99 0.0 0.0 0.00 0.00 0.00 89 1018.0
20260507040621 5 99 0.0 0.0 0.00 0.00 0.00 89 1018.0
20260507040123 5 106 0.0 0.0 0.00 0.00 0.00 89 1018.0
20260507035621 5 106 0.0 0.0 0.00 0.00 0.00 89 1018.0
20260507035122 5 106 0.0 0.0 0.00 0.00 0.00 88 1018.0
20260507034622 5 106 0.0 0.0 0.00 0.00 0.00 88 1018.0
20260507034122 5 106 0.0 0.0 0.00 0.00 0.00 87 1018.1
20260507033621 5 106 0.0 0.0 0.00 0.00 0.00 87 1018.1
20260507033119 5 106 0.0 0.0 0.00 0.00 0.00 87 1018.0
20260507032620 5 106 0.0 0.0 0.00 0.00 0.00 87 1018.1
20260507032122 5 106 0.0 0.0 0.00 0.00 0.00 87 1018.1
20260507031621 5 106 0.0 0.0 0.00 0.00 0.00 87 1018.0
20260507031122 5 106 0.0 1.6 0.00 0.00 0.00 87 1018.1
20260507030620 5 106 0.0 1.6 0.00 0.00 0.00 86 1018.1
20260507030340 5 106 0.0 0.0 0.00 0.00 0.00 86 1018.0
20260507030105 5 106 0.0 3.2 0.00 0.00 0.00 86 1018.2
20260507025121 5 106 0.0 3.2 0.00 0.00 0.00 86 1018.2
20260507024619 6 106 0.0 1.6 0.00 0.00 0.00 86 1018.2
20260507024122 6 106 0.0 4.8 0.00 0.00 0.00 86 1018.1
20260507023841 6 106 1.6 4.8 0.00 0.00 0.00 86 1018.0
20260507023345 6 103 1.6 4.8 0.00 0.00 0.00 86 1018.1
20260507022620 6 104 0.0 4.8 0.00 0.00 0.00 86 1018.1
20260507022345 6 104 3.2 4.8 0.00 0.00 0.00 85 1018.1
20260507021619 6 103 1.6 6.4 0.00 0.00 0.00 86 1018.1
20260507021121 6 100 1.6 6.4 0.00 0.00 0.00 85 1018.2
20260507020619 6 110 1.6 4.8 0.00 0.00 0.00 85 1018.1
20260507020120 6 110 1.6 4.8 0.00 0.00 0.00 85 1018.1
20260507015838 6 107 0.0 4.8 0.00 0.00 0.00 85 1018.2
20260507015120 6 90 0.0 3.2 0.00 0.00 0.00 85 1018.2
20260507014618 6 90 0.0 4.8 0.00 0.00 0.00 85 1018.2
20260507014119 6 90 1.6 4.8 0.00 0.00 0.00 84 1018.2
20260507013839 6 109 0.0 1.6 0.00 0.00 0.00 84 1018.2
20260507013119 6 109 0.0 3.2 0.00 0.00 0.00 84 1018.2
20260507012618 6 109 0.0 6.4 0.00 0.00 0.00 84 1018.2
20260507012336 6 107 0.0 6.4 0.00 0.00 0.00 84 1018.2
20260507011617 6 110 3.2 4.8 0.00 0.00 0.00 83 1018.3
20260507011116 6 111 3.2 4.8 0.00 0.00 0.00 83 1018.3
20260507010616 7 111 1.6 4.8 0.00 0.00 0.00 83 1018.4
20260507010116 7 116 1.6 4.8 0.00 0.00 0.00 83 1018.3
20260507005616 7 111 1.6 8.0 0.00 0.00 0.00 83 1018.4
20260507005116 7 124 1.6 8.0 0.00 0.00 0.00 83 1018.4
20260507004615 7 107 3.2 8.0 0.00 0.00 0.00 83 1018.4
20260507004340 7 120 3.2 8.0 0.00 0.00 0.00 83 1018.3
20260507003835 7 109 1.6 8.0 0.00 0.00 0.00 83 1018.4
20260507003336 7 96 1.6 9.7 0.00 0.00 0.00 84 1018.5
20260507002616 7 118 3.2 9.7 0.00 0.00 0.00 84 1018.6
20260507002115 7 124 3.2 8.0 0.00 0.00 0.00 84 1018.5
20260507001615 7 135 1.6 6.4 0.00 0.00 0.00 84 1018.5
20260507001114 7 123 3.2 6.4 0.00 0.00 0.00 84 1018.5
20260507000615 7 118 3.2 6.4 0.00 0.00 0.00 84 1018.5
20260507000114 7 118 3.2 6.4 0.00 0.00 0.00 84 1018.5
20260506235614 7 118 1.6 6.4 0.00 0.00 0.00 84 1018.5
20260506235114 7 111 1.6 4.8 0.00 0.00 0.00 85 1018.5
20260506234614 7 111 1.6 4.8 0.00 0.00 0.00 84 1018.6
20260506234114 7 113 1.6 4.8 0.00 0.00 0.00 85 1018.5
20260506233615 7 113 0.0 3.2 0.00 0.00 0.00 85 1018.5
20260506233317 7 109 3.2 4.8 0.00 0.00 0.00 85 1018.5
20260506233302 7 113 0.0 4.8 0.00 0.00 0.00 84 1018.5
20260506232113 7 104 1.6 8.0 0.00 0.00 0.00 84 1018.6
20260506231613 7 99 4.8 8.0 0.00 0.00 0.00 84 1018.5
20260506231114 7 104 1.6 4.8 0.00 0.00 0.00 83 1018.5
20260506230613 7 109 0.0 3.2 0.00 0.00 0.00 83 1018.6
20260506230113 7 109 0.0 4.8 0.00 0.00 0.00 83 1018.5
20260506225837 7 109 3.2 4.8 0.00 0.00 0.00 82 1018.5
20260506225113 7 114 1.6 3.2 0.00 0.00 0.00 82 1018.4
20260506224612 7 114 1.6 3.2 0.00 0.00 0.00 82 1018.5
20260506224114 7 116 0.0 4.8 0.00 0.00 0.00 82 1018.4
20260506223614 7 116 0.0 4.8 0.00 0.00 0.00 82 1018.4
20260506223114 7 111 1.6 4.8 0.00 0.00 0.00 82 1018.4
20260506222838 7 111 1.6 4.8 0.00 0.00 0.00 82 1018.4
20260506222114 7 113 1.6 4.8 0.00 0.00 0.00 82 1018.3
20260506221839 7 118 3.2 4.8 0.00 0.00 0.00 82 1018.3
20260506221113 7 123 1.6 4.8 0.00 0.00 0.00 82 1018.3
20260506220612 7 123 1.6 6.4 0.00 0.00 0.00 81 1018.3
20260506220113 7 123 0.0 6.4 0.00 0.00 0.00 81 1018.3
20260506215612 8 104 1.6 3.2 0.00 0.00 0.00 81 1018.3
20260506215113 8 104 0.0 3.2 0.00 0.00 0.00 80 1018.2
20260506214612 8 97 0.0 4.8 0.00 0.00 0.00 80 1018.1
20260506214113 8 97 1.6 4.8 0.00 0.00 0.00 80 1018.1
20260506213613 8 94 1.6 3.2 0.00 0.00 0.00 79 1018.2
20260506213339 8 94 1.6 4.8 0.00 0.00 0.00 79 1018.1
20260506212821 8 86 0.0 4.8 0.00 0.00 0.00 79 1018.1
20260506212806 8 94 3.2 4.8 0.00 0.00 0.00 79 1018.1
20260506211610 8 86 1.6 4.8 0.00 0.00 0.00 79 1018.2
20260506211110 8 63 1.6 4.8 0.00 0.00 0.00 79 1018.2
20260506210610 8 99 1.6 4.8 0.00 0.00 0.00 79 1018.1
20260506210110 8 92 1.6 6.4 0.00 0.00 0.00 78 1018.1
20260506205611 8 71 3.2 6.4 0.00 0.00 0.00 78 1018.1
20260506205109 8 86 3.2 6.4 0.00 0.00 0.00 78 1018.0
20260506204840 8 104 1.6 4.8 0.00 0.00 0.00 78 1018.1
20260506204111 8 93 1.6 4.8 0.00 0.00 0.00 77 1018.0
20260506203612 8 110 1.6 3.2 0.00 0.00 0.00 77 1018.0